[[{"header":{"parameterUnit":"m.s-1","parameterCategory":1,"la1":30.2991,"la2":30.254,"lo1":-89.0895,"lo2":-89.0444,"dy":0.0017,"dx":0.0017,"nx":28,"ny":28,"refTime":"2023-08-19T21:00:00:Z","depth":0,"parameterNumber":2,"parameterNumberName":"U-component_of_WINDS"},"data":[0,0,0,0,0,0,0,0,0,0,0,0,0,0,0,0,0,0,0,0,0,0,0,0,0,0,0,0,0,0,0,0,0,0,0,0,0,0,0,0,0,0,0,0,0,0,0,0,0,0,0,0,0,0,0,0,0,0,-0.3976,-0.3976,0,-0.4047,-0.4047,-0.4048,-0.4127,-0.4129,-0.413,-0.4131,-0.4202,-0.4202,-0.4203,0,0,0,0,0,0,0,0,0,0,0,0,0,-0.3908,-0.3909,-0.3976,-0.3976,-0.3977,-0.4046,-0.4047,-0.4048,-0.4127,-0.4129,-0.413,-0.4131,-0.4201,-0.4202,-0.4203,0,0,0,0,0,0,0,0,0,0,0,0,0,-0.3954,-0.3909,-0.3975,-0.4025,-0.403,-0.4046,-0.4047,-0.4049,-0.4127,-0.4129,-0.413,-0.4132,-0.4201,-0.4202,-0.4203,-0.4176,0,0,-0.4207,-0.4208,0,0,0,0,0,0,0,0,-0.3951,-0.3957,-0.4017,-0.4022,-0.4028,-0.408,-0.405,-0.4091,-0.4126,-0.409,-0.4131,-0.4133,-0.416,-0.4164,-0.4174,-0.4179,-0.4182,-0.4207,-0.4208,-0.4208,-0.4209,0,0,0,0,0,0,0,-0.3948,-0.3954,-0.4004,-0.4018,-0.4024,-0.4044,-0.4052,-0.4058,-0.4114,-0.4093,-0.4099,-0.4107,-0.4163,-0.4172,-0.4176,-0.4183,-0.4207,-0.4208,-0.4209,-0.4209,-0.4171,-0.417,0,0,0,0,0,0,-0.3938,-0.3951,-0.4001,-0.4006,-0.3993,-0.4044,-0.4053,-0.4061,-0.4114,-0.4124,-0.4105,-0.411,-0.4169,-0.4174,-0.4179,-0.4151,-0.4208,-0.4209,-0.421,-0.4173,-0.4171,-0.4169,0,0,0,0,0,0,-0.3936,-0.3941,-0.3999,-0.398,-0.3989,-0.4043,-0.4052,-0.4062,-0.4072,-0.4123,-0.4134,-0.4105,-0.4171,-0.4177,-0.4176,-0.4154,-0.421,-0.4211,-0.4175,-0.4172,-0.417,-0.4094,0,0,0,0,0,0,-0.3934,-0.394,-0.393,-0.3979,-0.3989,-0.3995,-0.405,-0.4062,-0.4074,-0.4081,-0.4125,-0.4134,-0.4173,-0.4174,-0.4178,-0.4157,-0.4212,-0.4177,-0.4174,-0.4171,-0.4098,-0.4089,-0.4081,0,0,0,0,0,-0.3931,-0.3905,-0.3929,-0.3935,-0.3978,-0.3993,-0.3999,-0.4044,-0.4071,-0.4062,-0.4096,-0.4133,-0.4156,-0.4173,-0.4178,-0.4157,-0.4179,-0.4175,-0.4171,-0.4102,-0.4091,-0.4081,0,0,0,0,0,0,-0.3851,-0.3912,-0.394,-0.3929,-0.3955,-0.4007,-0.3996,-0.403,-0.4049,-0.4055,-0.411,-0.4119,-0.4112,-0.4135,-0.4153,-0.4134,-0.4173,-0.417,-0.4119,-0.4109,-0.41,-0.4094,-0.4213,0,0,0,0,0,-0.3832,-0.384,-0.3893,-0.3878,-0.389,-0.3941,-0.3949,-0.3982,-0.4011,-0.4022,-0.4056,-0.4083,-0.4097,-0.4104,-0.4119,-0.4103,-0.4114,-0.4091,-0.4082,-0.4074,-0.4071,-0.4065,-0.4055,-0.4156,-0.4156,-0.4156,0,0,-0.3793,-0.3828,-0.3829,-0.3863,-0.3888,-0.3894,-0.3949,-0.3954,-0.3959,-0.4023,-0.4025,-0.405,-0.4084,-0.4076,-0.4073,-0.4094,-0.4046,-0.4069,-0.4063,-0.4064,-0.406,-0.405,-0.4042,-0.4154,-0.4154,-0.4154,0,0,-0.3725,-0.3752,-0.3744,-0.3767,-0.3804,-0.3838,-0.3836,-0.3883,-0.3902,-0.3905,-0.3954,-0.3961,-0.3983,-0.4006,-0.402,-0.3963,-0.3999,-0.3967,-0.392,-0.3913,-0.3906,-0.3899,-0.3879,-0.3871,-0.3963,-0.3963,-0.3963,0,-0.3672,-0.3684,-0.3735,-0.3737,-0.3751,-0.381,-0.3802,-0.3823,-0.3862,-0.387,-0.3893,-0.3924,-0.395,-0.3949,-0.3935,-0.3944,-0.3944,-0.3961,-0.3903,-0.3896,-0.3891,-0.3873,-0.3865,-0.3959,-0.3959,-0.396,-0.396,0,-0.3617,-0.3625,-0.3614,-0.3652,-0.3665,-0.3661,-0.3711,-0.3719,-0.3751,-0.3782,-0.3785,-0.382,-0.3844,-0.3846,-0.3877,-0.3849,-0.3861,-0.3893,-0.3933,-0.3876,-0.386,-0.3853,-0.3953,-0.3954,-0.3956,-0.3957,0,0,-0.3499,-0.3567,-0.3561,-0.358,-0.3626,-0.3633,-0.3633,-0.3658,-0.3663,-0.3689,-0.369,-0.3709,-0.3739,-0.3755,-0.379,-0.3784,-0.3738,-0.3817,-0.3818,-0.3801,-0.371,-0.3686,-0.3677,-0.3762,-0.3761,-0.376,-0.3707,0,-0.344,-0.3444,-0.349,-0.3481,-0.3489,-0.3547,-0.3548,-0.3576,-0.3606,-0.3617,-0.3651,-0.3663,-0.3702,-0.3712,-0.3709,-0.3744,-0.372,-0.3748,-0.3764,-0.3764,-0.3753,-0.3668,-0.3642,-0.359,-0.3701,-0.37,-0.3699,0,-0.337,-0.3393,-0.3385,-0.3433,-0.3438,-0.3437,-0.3464,-0.3475,-0.3509,-0.3531,-0.355,-0.359,-0.3594,-0.3632,-0.3639,-0.3657,-0.3666,-0.3685,-0.3684,-0.3686,-0.3728,-0.3668,-0.3575,-0.3567,-0.369,-0.3691,-0.3691,0,-0.3285,-0.3314,-0.3313,-0.3327,-0.3383,-0.3381,-0.3404,-0.344,-0.3452,-0.3476,-0.3485,-0.3508,-0.3521,-0.3539,-0.3584,-0.3607,-0.3585,-0.3627,-0.3604,-0.3603,-0.3596,-0.3596,-0.3502,-0.3602,-0.3603,-0.3603,-0.3603,0,-0.3213,-0.3206,-0.3276,-0.3275,-0.327,-0.3324,-0.3316,-0.3345,-0.3377,-0.3383,-0.3434,-0.3439,-0.3499,-0.351,-0.3546,-0.3546,-0.3552,-0.357,-0.3579,-0.3565,-0.3563,-0.3571,-0.3576,-0.3601,-0.3601,-0.3602,-0.3602,0,-0.3117,-0.3163,-0.3167,-0.322,-0.3233,-0.3226,-0.3272,-0.3274,-0.3308,-0.3315,-0.332,-0.3374,-0.339,-0.3438,-0.3466,-0.349,-0.348,-0.3498,-0.3469,-0.3475,-0.3449,-0.3451,-0.3358,-0.3348,-0.3454,-0.3453,-0.3452,0,-0.3068,-0.3064,-0.3117,-0.3125,-0.3147,-0.3159,-0.3173,-0.3226,-0.3238,-0.3277,-0.3274,-0.3296,-0.3315,-0.3339,-0.338,-0.3403,-0.3422,-0.3388,-0.3425,-0.3411,-0.3421,-0.3421,-0.3421,-0.3379,-0.3377,-0.3376,-0.3375,0,-0.2976,-0.3,-0.3017,-0.3043,-0.3058,-0.308,-0.3106,-0.311,-0.317,-0.3181,-0.3199,-0.3214,-0.3244,-0.3265,-0.3294,-0.3318,-0.3357,-0.3364,-0.3359,-0.3344,-0.3328,-0.3337,-0.3446,-0.3365,-0.3366,-0.3367,-0.3367,-0.3368,-0.2902,-0.2902,-0.2939,-0.2957,-0.2983,-0.3006,-0.3011,-0.3046,-0.3063,-0.3092,-0.3122,-0.3137,-0.3173,-0.3217,-0.3238,-0.3251,-0.3271,-0.3265,-0.3264,-0.3261,-0.3255,-0.3326,-0.3257,-0.3257,-0.3257,-0.3258,-0.3258,0,-0.2813,-0.2841,-0.2857,-0.2892,-0.2906,-0.2942,-0.2973,-0.2983,-0.2996,-0.3026,-0.3045,-0.3066,-0.3087,-0.3131,-0.3155,-0.3157,-0.3176,-0.3162,-0.3162,-0.3167,-0.3235,-0.3236,-0.3147,-0.3147,-0.3147,-0.3147,-0.3147,-0.3147,-0.2768,-0.277,-0.2798,-0.2813,-0.2842,-0.2857,-0.2872,-0.2894,-0.2918,-0.294,-0.2958,-0.2987,-0.3023,-0.3051,-0.3072,-0.3084,-0.3091,-0.3071,-0.3089,-0.3152,-0.3162,-0.3172,-0.3174,-0.3072,-0.3072,-0.302,-0.302,-0.302]},{"header":{"parameterUnit":"m.s-1","parameterCategory":1,"la1":30.2991,"la2":30.254,"lo1":-89.0895,"lo2":-89.0444,"dy":0.0017,"dx":0.0017,"nx":28,"ny":28,"refTime":"2023-08-19T21:00:00:Z","depth":0,"parameterNumber":3,"parameterNumberName":"V-component_of_WINDS"},"data":[0,0,0,0,0,0,0,0,0,0,0,0,0,0,0,0,0,0,0,0,0,0,0,0,0,0,0,0,0,0,0,0,0,0,0,0,0,0,0,0,0,0,0,0,0,0,0,0,0,0,0,0,0,0,0,0,0,0,2.9276,2.9276,0,2.9298,2.9298,2.9298,2.9272,2.9271,2.927,2.9269,2.9288,2.929,2.9291,0,0,0,0,0,0,0,0,0,0,0,0,0,2.9207,2.9209,2.9276,2.9276,2.9276,2.9298,2.9298,2.9299,2.9272,2.9271,2.927,2.9268,2.9288,2.9289,2.9291,0,0,0,0,0,0,0,0,0,0,0,0,0,2.9234,2.9209,2.9276,2.9266,2.9265,2.9298,2.9298,2.9299,2.9272,2.9271,2.9269,2.9268,2.9287,2.9289,2.9291,2.9334,0,0,2.9298,2.9299,0,0,0,0,0,0,0,0,2.9232,2.9236,2.9267,2.9266,2.9266,2.9281,2.9281,2.931,2.9273,2.9269,2.9269,2.9267,2.9287,2.9289,2.9296,2.9335,2.9336,2.9298,2.9299,2.93,2.9301,0,0,0,0,0,0,0,2.9231,2.9235,2.9284,2.9267,2.9267,2.9259,2.9261,2.9287,2.9286,2.927,2.9268,2.9271,2.9286,2.9294,2.9296,2.9336,2.9298,2.93,2.9301,2.9302,2.941,2.9412,0,0,0,0,0,0,2.923,2.9234,2.9284,2.9285,2.9245,2.9262,2.9264,2.9277,2.9286,2.9285,2.9272,2.927,2.9291,2.9294,2.9297,2.9346,2.93,2.9302,2.9304,2.9409,2.9411,2.9412,0,0,0,0,0,0,2.9229,2.9235,2.9283,2.9259,2.9265,2.9264,2.9279,2.9279,2.9286,2.9288,2.9287,2.9281,2.929,2.9294,2.9325,2.9346,2.9303,2.9305,2.9407,2.9409,2.9411,2.9446,0,0,0,0,0,0,2.9227,2.9235,2.9251,2.926,2.9266,2.9311,2.9281,2.928,2.9291,2.9288,2.9295,2.9295,2.9289,2.9322,2.9327,2.9349,2.9307,2.9405,2.9408,2.9411,2.9443,2.9449,2.9455,0,0,0,0,0,2.9225,2.926,2.9252,2.9259,2.9287,2.9313,2.9316,2.931,2.9293,2.9309,2.931,2.9295,2.9344,2.9325,2.9331,2.9353,2.9403,2.9407,2.941,2.944,2.9448,2.9454,0,0,0,0,0,0,2.9252,2.926,2.9252,2.9291,2.9302,2.9308,2.9328,2.9318,2.9333,2.9329,2.9319,2.9321,2.9354,2.9357,2.9337,2.9395,2.9371,2.9376,2.9391,2.9399,2.9404,2.9402,2.9309,0,0,0,0,0,2.9263,2.9284,2.929,2.9324,2.9329,2.9328,2.9339,2.9334,2.9343,2.9347,2.935,2.9359,2.9377,2.9388,2.9405,2.9444,2.9444,2.9462,2.9468,2.9473,2.9476,2.9497,2.9504,2.9424,2.9424,2.9424,0,0,2.9285,2.9292,2.9306,2.9329,2.9337,2.9358,2.9332,2.9355,2.937,2.935,2.938,2.9383,2.9392,2.9428,2.9443,2.9431,2.9499,2.9478,2.9482,2.9482,2.9501,2.9509,2.9515,2.9426,2.9426,2.9426,0,0,2.9335,2.9344,2.9372,2.9381,2.9393,2.9392,2.9399,2.9408,2.9409,2.9439,2.9424,2.9442,2.9473,2.948,2.9487,2.9542,2.9529,2.9548,2.9578,2.9597,2.9604,2.9609,2.9627,2.9634,2.9552,2.9552,2.9552,0,2.936,2.9392,2.9388,2.9412,2.9422,2.9408,2.9436,2.9444,2.946,2.9467,2.9454,2.9492,2.9497,2.9534,2.9547,2.9555,2.9561,2.9546,2.9604,2.9609,2.9614,2.9631,2.9638,2.9554,2.9554,2.9554,2.9554,0,2.9422,2.9445,2.9466,2.9484,2.9497,2.9523,2.9521,2.9535,2.9529,2.9529,2.956,2.9566,2.9583,2.9592,2.9586,2.9627,2.9619,2.9605,2.958,2.9624,2.9639,2.9646,2.9557,2.9557,2.9556,2.9555,0,0,2.9487,2.9503,2.9511,2.9519,2.9532,2.9549,2.9574,2.9592,2.9603,2.9616,2.9636,2.9663,2.965,2.9659,2.9654,2.9672,2.9713,2.9655,2.9655,2.9664,2.9758,2.9766,2.9774,2.9705,2.9707,2.9708,2.9756,0,2.9536,2.9581,2.9578,2.962,2.964,2.9628,2.965,2.966,2.9661,2.9678,2.9679,2.9698,2.9681,2.9686,2.9703,2.9704,2.9731,2.9701,2.9722,2.9723,2.9717,2.9782,2.9792,2.9837,2.9762,2.9763,2.9764,0,2.9598,2.9614,2.9658,2.9669,2.9677,2.9697,2.9714,2.9731,2.9742,2.9741,2.9752,2.9744,2.9769,2.9746,2.9779,2.9759,2.9768,2.977,2.9771,2.9771,2.9744,2.9781,2.9851,2.9857,2.9774,2.9773,2.9773,0,2.9639,2.9671,2.9702,2.9709,2.9723,2.9737,2.9743,2.9753,2.9764,2.9779,2.9785,2.9802,2.9811,2.9823,2.982,2.9804,2.9853,2.983,2.9852,2.9852,2.9861,2.986,2.9931,2.9871,2.9871,2.9871,2.9871,0,2.9692,2.9719,2.9721,2.9739,2.9769,2.9766,2.9795,2.98,2.9809,2.9827,2.9818,2.9835,2.983,2.9847,2.9845,2.9872,2.9876,2.9875,2.9874,2.9875,2.9875,2.9878,2.9874,2.9873,2.9872,2.9872,2.9871,0,2.9741,2.9743,2.9776,2.9787,2.979,2.9812,2.982,2.9837,2.984,2.9863,2.9868,2.987,2.989,2.9889,2.991,2.9908,2.9941,2.9937,2.9938,2.9936,2.9957,2.9954,3.0031,3.004,2.9977,2.9977,2.9978,0,2.9773,2.9794,2.9808,2.9821,2.9828,2.9848,2.986,2.9858,2.987,2.9885,2.99,2.9919,2.9934,2.9965,2.9968,2.9985,2.9979,3.0005,2.9981,2.9982,2.9977,2.9975,2.9976,3.0009,3.001,3.001,3.0011,0,2.983,2.9831,2.9849,2.9868,2.9883,2.9897,2.991,2.992,2.992,2.9934,2.9955,2.9966,2.9989,3.0007,3.0024,3.0028,3.0019,3.0019,3.0024,3.0024,3.0023,3.0022,2.9948,3.0016,3.0016,3.0015,3.0015,3.0015,2.987,2.9888,2.9901,2.9921,2.9932,2.9945,2.9961,2.9966,2.9983,3.0003,3.0001,3.0023,3.0034,3.0055,3.0061,3.0078,3.0069,3.0077,3.0079,3.0081,3.0082,3.0022,3.0081,3.0081,3.0081,3.0081,3.0081,0,2.9925,2.9933,2.9952,2.9972,2.9988,2.998,2.9995,3.0008,3.0028,3.004,3.0055,3.0079,3.0097,3.0102,3.0119,3.0132,3.0128,3.0136,3.0134,3.0135,3.0091,3.0083,3.0139,3.0139,3.0139,3.0139,3.0139,3.0139,2.9955,2.9984,2.9987,3.0021,3.0029,3.0052,3.0061,3.0072,3.0081,3.0108,3.0124,3.0128,3.0137,3.0155,3.0171,3.0172,3.0177,3.0187,3.0186,3.0144,3.0138,3.0132,3.0125,3.0189,3.0189,3.0228,3.0229,3.0229]}]]